Simultaneous Nadir Overpasses (SNOs) Predictions

Prediction of SNOs between NOAA-20 and METOP-B Satellite Orbit:

Table of predicted SNOs for the next 14.0 days since TLE Epoch: 1/28/2024
Index Date (NOAA-20) Time (NOAA-20) Lat,Lon (NOAA-20) SZA (NOAA-20 ) Date (METOP-B) Time (METOP-B) Lat,Lon (METOP-B) SZA (METOP-B ) Distance(km) Time Diff (sec)
1 02/05/2024 19:02:25 73.69,-115.77 89.94 02/05/2024 19:03:33 73.63,-113.45 89.73 73.09 68
2 02/05/2024 19:53:08 -73.64, 51.65 90.13 02/05/2024 19:54:16 -73.59, 53.79 90.32 67.36 68
3 02/05/2024 20:43:49 73.39,-140.46 89.59 02/05/2024 20:45:00 73.36,-139.39 89.48 34.38 71
4 02/05/2024 21:34:32 -73.35, 26.95 90.48 02/05/2024 21:35:44 -73.28, 27.74 90.62 26.52 72
5 02/05/2024 22:25:14 73.15,-165.29 89.29 02/05/2024 22:26:26 73.15,-165.20 89.27 2.71 72
6 02/05/2024 23:15:57 -73.10, 2.12 90.77 02/05/2024 23:17:09 -73.11, 2.04 90.78 2.78 72
7 02/06/2024 00:06:44 73.15, 169.33 89.27 02/06/2024 00:07:48 73.13, 169.42 89.23 3.60 64
8 02/06/2024 00:57:27 -73.11, -23.26 90.79 02/06/2024 00:58:31 -73.09, -23.33 90.81 2.70 64
9 02/06/2024 01:48:13 73.10, 144.06 89.20 02/06/2024 01:49:10 73.12, 144.05 89.20 1.56 57
10 02/06/2024 02:38:57 -73.11, -48.64 90.81 02/06/2024 02:39:52 -73.13, -48.60 90.80 2.68 55
11 02/06/2024 03:29:43 73.11, 118.67 89.18 02/06/2024 03:30:32 73.10, 118.68 89.17 0.53 49
12 02/06/2024 04:20:27 -73.11, -74.02 90.83 02/06/2024 04:21:14 -73.12, -73.97 90.84 1.74 47
13 02/06/2024 05:11:13 73.11, 93.29 89.16 02/06/2024 05:11:54 73.09, 93.30 89.13 2.62 41
14 02/06/2024 06:01:57 -73.12, -99.41 90.84 02/06/2024 06:02:36 -73.10, -99.34 90.87 2.71 39
15 02/06/2024 06:52:42 73.06, 68.02 89.09 02/06/2024 06:53:16 73.07, 67.93 89.10 3.05 34
16 02/06/2024 07:43:26 -73.07,-124.68 90.92 02/06/2024 07:43:58 -73.09,-124.72 90.91 2.10 32
17 02/06/2024 08:34:12 73.07, 42.64 89.07 02/06/2024 08:34:38 73.06, 42.56 89.06 2.85 26
18 02/06/2024 09:24:56 -73.07,-150.06 90.93 02/06/2024 09:25:20 -73.07,-150.09 90.94 0.96 24
19 02/06/2024 10:15:42 73.07, 17.26 89.06 02/06/2024 10:15:59 73.09, 17.29 89.07 2.70 17
20 02/06/2024 11:06:26 -73.08,-175.44 90.95 02/06/2024 11:06:42 -73.06,-175.46 90.98 2.45 16
21 02/06/2024 11:57:12 73.07, -8.13 89.04 02/06/2024 11:57:21 73.08, -8.08 89.04 1.53 9
22 02/06/2024 12:47:56 -73.08, 159.18 90.97 02/06/2024 12:48:03 -73.09, 159.27 90.97 3.40 7
23 02/06/2024 13:38:42 73.08, -33.51 89.02 02/06/2024 13:38:43 73.06, -33.45 89.00 2.49 1
24 02/06/2024 14:29:26 -73.08, 133.79 90.99 02/06/2024 14:29:25 -73.08, 133.90 91.00 3.60 1
25 02/06/2024 15:20:11 73.03, -58.78 88.95 02/06/2024 15:20:05 73.05, -58.83 88.97 2.30 6
26 02/06/2024 16:10:55 -73.04, 108.52 91.06 02/06/2024 16:10:47 -73.06, 108.53 91.04 2.67 8
27 02/06/2024 17:01:41 73.03, -84.16 88.93 02/06/2024 17:01:27 73.03, -84.20 88.93 1.18 14
28 02/06/2024 17:52:25 -73.04, 83.14 91.08 02/06/2024 17:52:09 -73.05, 83.16 91.07 0.84 16
29 02/06/2024 18:43:11 73.04,-109.55 88.91 02/06/2024 18:42:49 73.02,-109.57 88.90 2.52 22
30 02/06/2024 19:33:55 -73.04, 57.76 91.10 02/06/2024 19:33:31 -73.03, 57.78 91.10 1.71 24
31 02/06/2024 20:24:41 73.04,-134.93 88.89 02/06/2024 20:24:10 73.05,-134.84 88.91 3.18 31
32 02/06/2024 21:15:24 -73.00, 32.48 91.17 02/06/2024 21:14:53 -73.02, 32.41 91.14 3.10 31
33 02/06/2024 22:06:11 73.04,-160.31 88.88 02/06/2024 22:05:32 73.04,-160.21 88.87 3.38 39
34 02/06/2024 22:56:54 -73.00, 7.10 91.19 02/06/2024 22:56:15 -73.00, 7.04 91.17 2.01 39
35 02/06/2024 23:47:40 73.00, 174.41 88.80 02/06/2024 23:46:54 73.02, 174.42 88.84 2.61 46
36 02/07/2024 00:38:24 -73.00, -18.28 91.21 02/07/2024 00:37:37 -72.99, -18.33 91.21 2.67 47
37 02/07/2024 01:29:10 73.00, 149.03 88.79 02/07/2024 01:28:16 73.01, 149.04 88.80 0.62 54
38 02/07/2024 02:19:54 -73.01, -43.66 91.22 02/07/2024 02:18:58 -73.02, -43.60 91.20 2.56 56
39 02/07/2024 03:10:40 73.01, 123.65 88.77 02/07/2024 03:09:38 72.99, 123.67 88.77 1.69 62
40 02/07/2024 04:01:24 -73.01, -69.05 91.24 02/07/2024 04:00:20 -73.01, -68.97 91.23 2.46 64
41 02/07/2024 04:52:09 72.96, 98.38 88.69 02/07/2024 04:51:00 72.98, 98.30 88.73 3.23 69
42 02/07/2024 05:42:53 -72.97, -94.32 91.31 02/07/2024 05:41:42 -72.99, -94.35 91.27 3.05 71
43 02/07/2024 06:33:37 72.86, 73.21 88.56 02/07/2024 06:32:24 72.86, 72.71 88.61 16.29 73
44 02/07/2024 07:24:20 -72.82,-119.38 91.50 02/07/2024 07:23:07 -72.82,-120.04 91.43 21.45 73
45 02/07/2024 08:15:01 72.56, 48.46 88.21 02/07/2024 08:13:51 72.59, 46.82 88.36 54.67 70
46 02/07/2024 09:05:44 -72.52,-144.14 91.85 02/07/2024 09:04:34 -72.56,-145.92 91.69 59.70 70
47 02/07/2024 09:56:25 72.26, 23.68 87.86 02/07/2024 09:55:19 72.27, 20.84 88.06 96.37 66



Historial Predications of SNOs between NOAA-20 and METOP-B
